Regional Weather Roundup
Issued by NWS Goodland, KS

Home | Current Version | Previous Version | Graphics & Text | Print | Product List | Glossary On
Versions: 1 2 3 4 5 6 7 8 9 10 11 12 13 14 15 16 17 18 19 20 21 22 23 24 25 26 27 28 29 30 31 32 33 34 35 36 37 38 39 40 41 42 43 44 45 46 47 48 49 50
000
ASUS43 KGLD 241759
RWRGLD

GOODLAND FORECAST AREA HOURLY WEATHER ROUNDUP
NATIONAL WEATHER SERVICE GOODLAND KS
1200 PM MDT FRI MAR 24 2017

...OFFICIAL OBSERVATIONS...

CITY           SKY/WX    TMP DP  RH WIND       PRES   REMARKS
GOODLAND KS    LGT RAIN  41  40  96 N26G32    29.92R
HILL CITY KS   CLOUDY    45  43  93 NE24G33   29.88R
IMPERIAL NEB   CLOUDY    43  39  86 N29G40    29.97R
MCCOOK NEB     LGT RAIN  42  41  96 NE23G33   29.91R FOG
AKRON CO       CLOUDY    39  35  86 N30G40    30.06R
BURLINGTON CO  RAIN      39  37  92 N30G41    29.96R FOG
LIMON CO       LGT SNOW  33  33 100 N29G38    30.04  FOG     WCI  19
$$

...UNOFFICIAL OBSERVATIONS...

CITY           SKY/WX    TMP DP  RH WIND       PRES   REMARKS
LENORA KS        N/A     42  32  68 N13G20      N/A
NORTON KS      CLOUDY    41  36  81 NE24G32   29.89R
SHARON SPRINGS   N/A     42  40  93 N20G30      N/A
TRENTON NEB      N/A     41  32  70 N14         N/A
KIT CARSON CO    N/A     34  31  90 MISG        N/A
YUMA CO        CLOUDY    37  36  93 N30G43    30.01R
$$




USA.gov is the U.S. government's official web portal to all federal, state and local government web resources and services.